User: anonymous   Login
Location: Unspecified
(0.0000°N, 0.0000°E)
Time: 01:58:47
(UTC+00:00)
Language:

QIANFAN-81 - Orbit

View from above orbital plane
View from above orbital plane
View from above satellite
View from above satellite

Ground track
Ground track

The orbit is defined by the following mean orbital elements,

1 63167U          26145.61475859 +.00000000 +00000-0 -83274-5 0 00009
2 63167  88.9688 302.8854 0015004  15.8508 344.3110 13.51013404    07
Epoch (UTC): 25 May 2026 14:45:15
Eccentricity: 0.0015004
inclination: 88.9688°
perigee height: 1057 km
apogee height: 1080 km
right ascension of ascending node: 302.8854°
argument of perigee: 15.8508°
revolutions per day: 13.51013404
mean anomaly at epoch: 344.3110°

The dashed part of the orbit path shows where the satellite is in the earth's shadow,  

DLR